Back to catalog

COSMOS 1275 DEB

AlivePO
NORAD 13801·DEBRIS·🇷🇺 Russia

Launched Jun 4, 1981 from Plesetsk Cosmodrome

Loading…

Next Passes (next 24 hours)

TLE

FreshSource: Space-Track

Epoch: Sep 14, 2026, 05:25 UTC

1 13801U 81053GV  26257.22628089  .00001937  00000-0  86996-3 0  9990
2 13801  82.7921 271.6947 0045755  43.9799 316.5009 14.21421047232240

Track COSMOS 1275 DEB in real time with AllMySat

Download on the App Store